When you browse on this site, cookies collect data to enhance your experience and personalize the content and advertising you see.
Visit our Privacy Policy to learn more. By continuing to use the site, you agree to this use of cookies and data.
  • în România
  • Lista ţărilor
  • Pe 7 zile
  • Temperatura apei
  • Meteo pe hartă
  • Widget-uri
  • user-avatar
    Intrare

    Meteo pe oră la Catanzaro

    Astăzi, 13 Noiembrie, Miercuri

    Timp Temperatura Precipitaţii Vânt Presiune Umiditate
    00:00 +13°C° 0.9 mm 10 m/s 729 mmHg 89%
    01:00 +13°C° 0.9 mm 10 m/s 729 mmHg 92%
    02:00 +13°C° 0.4 mm 9 m/s 729 mmHg 91%
    03:00 +13°C° 0.4 mm 8 m/s 729 mmHg 90%
    04:00 +13°C° 0.4 mm 8 m/s 730 mmHg 88%
    05:00 +14°C° 0.8 mm 7 m/s 730 mmHg 90%
    06:00 +14°C° 0.8 mm 6 m/s 731 mmHg 91%
    07:00 +14°C° 0.8 mm 5 m/s 732 mmHg 92%
    08:00 +14°C° 0.6 mm 5 m/s 733 mmHg 90%
    09:00 +14°C° 0.6 mm 5 m/s 734 mmHg 88%
    10:00 +15°C° 0.6 mm 5 m/s 734 mmHg 86%
    11:00 +15°C° 0.1 mm 5 m/s 735 mmHg 83%
    12:00 +15°C° 0.1 mm 6 m/s 735 mmHg 81%
    13:00 +15°C° 0.1 mm 6 m/s 735 mmHg 78%
    14:00 +15°C° 0.1 mm 6 m/s 736 mmHg 78%
    15:00 +14°C° 0.1 mm 6 m/s 736 mmHg 77%
    16:00 +14°C° 0.1 mm 6 m/s 736 mmHg 77%
    17:00 +13°C° 0 mm 5 m/s 737 mmHg 78%
    18:00 +13°C° 0 mm 5 m/s 737 mmHg 78%
    19:00 +12°C° 0 mm 4 m/s 738 mmHg 79%
    20:00 +12°C° 0 mm 4 m/s 738 mmHg 77%
    21:00 +11°C° 0 mm 3 m/s 738 mmHg 75%
    22:00 +11°C° 0 mm 3 m/s 738 mmHg 73%
    23:00 +11°C° 0 mm 3 m/s 738 mmHg 72%

    Mâine, 14 Noiembrie, Joi

    Timp Temperatura Precipitaţii Vânt Presiune Umiditate
    00:00 +11°C° 0 mm 3 m/s 738 mmHg 70%
    01:00 +12°C° 0 mm 2 m/s 738 mmHg 68%
    02:00 +12°C° 0 mm 2 m/s 738 mmHg 69%
    03:00 +12°C° 0 mm 2 m/s 738 mmHg 71%
    04:00 +12°C° 0 mm 2 m/s 738 mmHg 72%
    05:00 +13°C° 0 mm 2 m/s 738 mmHg 72%
    06:00 +13°C° 0 mm 2 m/s 738 mmHg 73%
    07:00 +13°C° 0 mm 2 m/s 738 mmHg 73%
    08:00 +14°C° 0 mm 2 m/s 738 mmHg 71%
    09:00 +14°C° 0 mm 3 m/s 738 mmHg 68%
    10:00 +16°C° 0 mm 3 m/s 738 mmHg 66%
    11:00 +17°C° 0.1 mm 3 m/s 738 mmHg 66%
    12:00 +17°C° 0.1 mm 3 m/s 738 mmHg 66%
    13:00 +18°C° 0.1 mm 3 m/s 738 mmHg 67%
    14:00 +17°C° 0.2 mm 3 m/s 738 mmHg 70%
    15:00 +17°C° 0.2 mm 2 m/s 738 mmHg 74%
    16:00 +16°C° 0.2 mm 2 m/s 738 mmHg 78%
    17:00 +15°C° 0 mm 2 m/s 738 mmHg 79%
    18:00 +14°C° 0 mm 2 m/s 738 mmHg 79%
    19:00 +13°C° 0 mm 2 m/s 738 mmHg 80%
    20:00 +13°C° 0 mm 2 m/s 739 mmHg 81%
    21:00 +13°C° 0 mm 2 m/s 739 mmHg 81%
    22:00 +13°C° 0 mm 2 m/s 739 mmHg 82%
    23:00 +13°C° 0 mm 2 m/s 739 mmHg 82%

    Poimâine, 15 Noiembrie, Vineri

    Timp Temperatura Precipitaţii Vânt Presiune Umiditate
    00:00 +13°C° 0 mm 2 m/s 740 mmHg 83%
    01:00 +13°C° 0 mm 2 m/s 740 mmHg 84%
    02:00 +13°C° 0 mm 2 m/s 740 mmHg 80%
    03:00 +13°C° 0 mm 2 m/s 740 mmHg 76%
    04:00 +12°C° 0 mm 1 m/s 739 mmHg 72%
    05:00 +12°C° 0 mm 2 m/s 740 mmHg 73%
    06:00 +12°C° 0 mm 2 m/s 740 mmHg 73%
    07:00 +12°C° 0 mm 2 m/s 740 mmHg 74%
    08:00 +14°C° 0 mm 3 m/s 741 mmHg 73%
    09:00 +16°C° 0 mm 3 m/s 741 mmHg 65%
    10:00 +18°C° 0 mm 3 m/s 741 mmHg 57%
    11:00 +19°C° 0 mm 4 m/s 741 mmHg 55%
    12:00 +20°C° 0 mm 4 m/s 741 mmHg 52%
    13:00 +20°C° 0 mm 4 m/s 741 mmHg 50%
    14:00 +19°C° 0 mm 4 m/s 741 mmHg 57%
    15:00 +19°C° 0 mm 4 m/s 741 mmHg 64%
    16:00 +18°C° 0 mm 4 m/s 741 mmHg 71%
    17:00 +17°C° 0 mm 4 m/s 741 mmHg 75%
    18:00 +15°C° 0 mm 4 m/s 741 mmHg 79%
    19:00 +14°C° 0 mm 4 m/s 742 mmHg 83%
    20:00 +14°C° 0 mm 4 m/s 742 mmHg 84%
    21:00 +14°C° 0 mm 4 m/s 742 mmHg 84%
    22:00 +14°C° 0 mm 3 m/s 742 mmHg 84%
    23:00 +14°C° 0 mm 3 m/s 742 mmHg 85%

    16 Noiembrie, Sâmbătă

    Timp Temperatura Precipitaţii Vânt Presiune Umiditate
    00:00 +14°C° 0 mm 3 m/s 742 mmHg 85%
    01:00 +14°C° 0 mm 3 m/s 742 mmHg 86%
    02:00 +14°C° 0 mm 3 m/s 742 mmHg 86%
    03:00 +14°C° 0 mm 4 m/s 742 mmHg 87%
    04:00 +14°C° 0 mm 4 m/s 742 mmHg 88%
    05:00 +14°C° 0 mm 4 m/s 742 mmHg 88%
    06:00 +14°C° 0 mm 4 m/s 742 mmHg 89%
    07:00 +14°C° 0 mm 4 m/s 742 mmHg 89%
    08:00 +15°C° 0.1 mm 5 m/s 742 mmHg 85%
    09:00 +17°C° 0.1 mm 5 m/s 742 mmHg 80%
    10:00 +19°C° 0.1 mm 6 m/s 742 mmHg 76%
    11:00 +19°C° 0.2 mm 6 m/s 742 mmHg 75%
    12:00 +19°C° 0.2 mm 6 m/s 741 mmHg 74%
    13:00 +18°C° 0.2 mm 7 m/s 741 mmHg 74%
    14:00 +19°C° 0.2 mm 6 m/s 740 mmHg 76%
    15:00 +17°C° 0.2 mm 6 m/s 740 mmHg 79%
    16:00 +17°C° 0.2 mm 6 m/s 740 mmHg 82%
    17:00 +16°C° 0.2 mm 6 m/s 739 mmHg 84%
    18:00 +16°C° 0.2 mm 6 m/s 739 mmHg 86%
    19:00 +15°C° 0.2 mm 6 m/s 739 mmHg 88%
    20:00 +16°C° 0.2 mm 7 m/s 739 mmHg 88%
    21:00 +16°C° 0.2 mm 7 m/s 739 mmHg 88%
    22:00 +16°C° 0.2 mm 7 m/s 739 mmHg 88%
    23:00 +16°C° 0.1 mm 8 m/s 738 mmHg 88%

    17 Noiembrie, Duminică

    Timp Temperatura Precipitaţii Vânt Presiune Umiditate
    00:00 +16°C° 0.1 mm 8 m/s 738 mmHg 88%
    01:00 +16°C° 0.1 mm 8 m/s 737 mmHg 87%
    02:00 +16°C° 0.2 mm 8 m/s 737 mmHg 87%
    03:00 +16°C° 0.2 mm 8 m/s 736 mmHg 87%
    04:00 +16°C° 0.2 mm 8 m/s 736 mmHg 87%
    05:00 +16°C° 0.4 mm 8 m/s 736 mmHg 87%
    06:00 +16°C° 0.4 mm 9 m/s 736 mmHg 87%
    07:00 +16°C° 0.4 mm 9 m/s 736 mmHg 87%
    08:00 +17°C° 0.5 mm 8 m/s 737 mmHg 82%
    09:00 +17°C° 0.5 mm 7 m/s 737 mmHg 76%
    10:00 +19°C° 0.5 mm 6 m/s 738 mmHg 71%
    11:00 +19°C° 0 mm 6 m/s 738 mmHg 68%
    12:00 +17°C° 0 mm 5 m/s 738 mmHg 65%
    13:00 +17°C° 0 mm 5 m/s 738 mmHg 62%
    14:00 +16°C° 0.1 mm 5 m/s 738 mmHg 66%
    15:00 +15°C° 0.1 mm 5 m/s 738 mmHg 70%
    16:00 +14°C° 0.1 mm 5 m/s 739 mmHg 74%
    17:00 +14°C° 0.3 mm 5 m/s 739 mmHg 75%
    18:00 +13°C° 0.3 mm 5 m/s 740 mmHg 77%
    19:00 +12°C° 0.3 mm 5 m/s 740 mmHg 78%
    20:00 +12°C° 0 mm 5 m/s 740 mmHg 78%
    21:00 +12°C° 0 mm 5 m/s 741 mmHg 79%
    22:00 +12°C° 0 mm 5 m/s 741 mmHg 79%
    23:00 +10°C° 0 mm 5 m/s 741 mmHg 80%

    18 Noiembrie, Luni

    Timp Temperatura Precipitaţii Vânt Presiune Umiditate
    00:00 +11°C° 0 mm 4 m/s 742 mmHg 82%
    01:00 +11°C° 0 mm 4 m/s 742 mmHg 83%
    02:00 +11°C° 0 mm 4 m/s 742 mmHg 82%
    03:00 +11°C° 0 mm 3 m/s 742 mmHg 81%
    04:00 +10°C° 0 mm 3 m/s 742 mmHg 81%
    05:00 +10°C° 0 mm 3 m/s 743 mmHg 81%
    06:00 +10°C° 0 mm 3 m/s 743 mmHg 81%
    07:00 +10°C° 0 mm 3 m/s 743 mmHg 81%
    08:00 +13°C° 0 mm 2 m/s 743 mmHg 75%
    09:00 +15°C° 0 mm 2 m/s 743 mmHg 69%
    10:00 +16°C° 0 mm 1 m/s 744 mmHg 64%
    11:00 +17°C° 0 mm 2 m/s 744 mmHg 62%
    12:00 +17°C° 0 mm 2 m/s 743 mmHg 60%
    13:00 +18°C° 0 mm 2 m/s 743 mmHg 58%
    14:00 +17°C° 0 mm 2 m/s 743 mmHg 62%
    15:00 +16°C° 0 mm 2 m/s 743 mmHg 66%
    16:00 +15°C° 0 mm 2 m/s 743 mmHg 70%
    17:00 +14°C° 0 mm 2 m/s 743 mmHg 72%
    18:00 +13°C° 0 mm 2 m/s 743 mmHg 75%
    19:00 +12°C° 0 mm 2 m/s 743 mmHg 77%
    20:00 +12°C° 0 mm 2 m/s 743 mmHg 76%
    21:00 +12°C° 0 mm 2 m/s 743 mmHg 74%
    22:00 +12°C° 0 mm 2 m/s 743 mmHg 73%
    23:00 +12°C° 0 mm 2 m/s 742 mmHg 71%
    Arată mai mult